CW5602 Weather Reports


time (UTC)temp
C
wind
direction
speed
KPH
gust
KPH
rain 1hr
cm
rain 24hr
cm
rain mn
cm
humidity
%
barometer
mb
20260505120203 11 57 1.6 8.0 0.00 0.00 0.00 82 1013.2
20260505113203 10 134 0.0 4.8 0.00 0.00 0.00 79 1012.9
20260505110204 10 130 0.0 4.8 0.00 0.00 0.00 79 1012.8
20260505100704 11 190 3.2 4.8 0.00 0.00 0.00 76 1012.8
20260505093703 11 301 0.0 4.8 0.00 0.00 0.00 76 1012.6
20260505083204 11 52 1.6 11.3 0.00 0.00 0.00 73 1012.6
20260505080204 12 107 1.6 8.0 0.00 0.00 0.00 72 1012.4
20260505073704 12 40 1.6 4.8 0.00 0.00 0.00 71 1012.3
20260505073204 12 9 3.2 11.3 0.00 0.00 0.00 71 1012.2
20260505070203 12 149 3.2 14.5 0.00 0.00 0.00 69 1012.3
20260505063704 12 73 3.2 4.8 0.00 0.00 0.00 70 1012.5
20260505060704 12 103 3.2 9.7 0.00 0.00 0.00 70 1012.8
20260505060203 12 61 3.2 9.7 0.00 0.00 0.00 69 1012.8
20260505053703 13 112 1.6 4.8 0.00 0.00 0.00 69 1013.0
20260505053203 13 74 0.0 14.5 0.00 0.00 0.00 69 1013.1
20260505050204 13 238 3.2 12.9 0.00 0.00 0.00 68 1013.1
20260505040704 13 126 4.8 8.0 0.00 0.00 0.00 71 1013.2
20260505040204 13 106 3.2 9.7 0.00 0.00 0.00 70 1013.3
20260505033204 13 67 4.8 12.9 0.00 0.00 0.00 68 1013.5
20260505030203 13 8 6.4 16.1 0.00 0.00 0.00 68 1013.8
20260505023704 13 55 3.2 14.5 0.00 0.00 0.00 67 1013.7
20260505023205 13 104 3.2 4.8 0.00 0.00 0.00 67 1013.7
20260505020204 14 46 1.6 4.8 0.00 0.00 0.00 69 1013.4
20260505013204 15 65 1.6 8.0 0.00 0.00 0.00 71 1013.3
20260505010703 15 20 1.6 4.8 0.00 0.00 0.00 70 1013.1
20260505010204 15 49 3.2 4.8 0.00 0.00 0.00 70 1013.1
20260505003703 16 128 1.6 4.8 0.00 0.00 0.00 69 1012.7
20260504233704 17 175 3.2 9.7 0.00 0.00 0.00 63 1012.4
20260504230704 18 214 1.6 4.8 0.00 0.00 0.00 60 1012.1
20260504223204 18 46 1.6 8.0 0.00 0.00 0.00 53 1012.0
20260504213703 20 0 8.0 19.3 0.00 0.00 0.00 46 1012.1
20260504213204 20 51 1.6 12.9 0.00 0.00 0.00 44 1012.1
20260504210204 21 351 4.8 20.9 0.00 0.00 0.00 43 1012.1
20260504203704 21 347 4.8 14.5 0.00 0.00 0.00 41 1012.4
20260504200704 21 340 8.0 16.1 0.00 0.00 0.00 43 1012.8
20260504193703 20 359 8.0 14.5 0.00 0.00 0.00 45 1013.3
20260504190203 20 343 4.8 14.5 0.00 0.00 0.00 44 1014.0
20260504183704 21 60 1.6 4.8 0.00 0.00 0.00 37 1014.2
20260504180704 20 341 4.8 12.9 0.00 0.00 0.00 44 1014.3
20260504180204 20 45 1.6 11.3 0.00 0.00 0.00 38 1014.3
20260504173204 20 346 1.6 19.3 0.00 0.00 0.00 42 1014.7
20260504170703 18 354 9.7 19.3 0.00 0.00 0.00 52 1014.9
20260504170203 18 352 8.0 19.3 0.00 0.00 0.00 54 1014.9
20260504160204 15 314 1.6 8.0 0.00 0.00 0.00 58 1016.1
20260504140703 10 332 0.0 1.6 0.00 0.00 0.00 74 1017.4
20260504140204 10 332 3.2 4.8 0.00 0.00 0.00 74 1017.5
20260504130704 8 332 0.0 3.2 0.00 0.00 0.00 76 1016.9